AirNav   Everest Fuels
 
 1240 users online  

61NC Southern Comforts Aerodrome
Parkton, North Carolina, USA

GOING TO PARKTON?


FAA INFORMATION EFFECTIVE 10 SEPTEMBER 2020

Location

FAA Identifier: 61NC
Lat/Long: 34-52-16.5900N 078-57-56.1040W
34-52.276500N 078-57.935067W
34.8712750,-78.9655844
(estimated)
Elevation: 175 ft. / 53 m (estimated)
Variation: 07W (1985)
From city: 3 miles SE of PARKTON, NC
Time zone: UTC -4 (UTC -5 during Standard Time)
Zip code: 28371

Airport Operations

Airport use: Private use. Permission required prior to landing
Activation date: 06/1976
Control tower: no
ARTCC: WASHINGTON CENTER
FSS: RALEIGH FLIGHT SERVICE STATION
Attendance: DAYLIGHT HOURS
Wind indicator: yes
Segmented circle: no

Airport Communications

UNICOM: 122.8
WX ASOS at FAY (8 nm NE): 121.25 (910-484-1546)
WX ASOS at LBT (16 nm S): 134.775 (910-671-1906)

Nearby radio navigation aids

VOR radial/distance  VOR name  Freq  Var
FAYr217/8.2FAYETTEVILLE VOR/DME108.8004W
SDZr127/36.9SANDHILLS VORTAC111.8003W

 
NDB name  Hdg/Dist  Freq  Var  ID
ROBESON025/16.135908WRSY .-. ... -.--
FORT BRAGG212/17.739307WFGP ..-. --. .--.
POPE188/21.333807WPOB .--. --- -...
MACKALL116/27.227806WHFF .... ..-. ..-.
ELIZABETHTOWN321/30.239808WTGQ - --. --.-
CLINTON267/30.341209WCTZ -.-. - --..
DILLON047/32.227409WDLC -.. .-.. -.-.
HARNETT211/36.641708WHQT .... --.- -
CAMP348/38.022707WCPC -.-. .--. -.-.

Airport Services

Fuel available: 100LL
Airframe service: MAJOR
Powerplant service: MAJOR

Runway Information

Runway 1/19

Dimensions: 4000 x 200 ft. / 1219 x 61 m
Surface: turf
RUNWAY 1  RUNWAY 19
Traffic pattern: leftleft
Obstructions: 30 ft. trees30 ft. trees

Airport Ownership and Management from official FAA records

Ownership: Privately-owned
Owner: WILLIAM K. JOHNSON/WALTER MC GILL
391 LITTLE MARSH RD
PARKTON, NC 28371
Phone 910-858-2206
MR. MC GILL RESIDES IN CALIFORNIA AND IS MR. JOHNSON'S UNCLE.
Manager: WILLIAM K. JOHNSON
391 LITTLE MARSH RD
PARKTON, NC 28371
Phone 910-858-2206

Airport Operational Statistics

Aircraft based on the field: 37
Single engine airplanes: 37
    

Additional Remarks

PUBLIC PROVIDED WITH REPAIR SERVICES.
FOR CD CTC WASHINGTON ARTCC AT 703-771-3587.

Instrument Procedures

There are no published instrument procedures at 61NC.

Some nearby airports with instrument procedures:

KFAY - Fayetteville Regional Airport/Grannis Field (8 nm NE)
5W4 - P K Airpark (14 nm NW)
KFBG - Simmons Army Airfield (16 nm N)
KLBT - Lumberton Regional Airport (16 nm S)
KPOB - Pope Army Airfield (18 nm N)
 
Loc | Ops | Rwys | IFR | FBO | Links
Com | Nav | Svcs | Stats | Notes
Area around 61NC (Southern Comforts Aerodrome)
 
Road maps at: MapQuest Bing Google
 
Aerial photo
No photo
 
Sectional chart

 
Airport distance calculator
Flying to Southern Comforts Aerodrome? Find the distance to fly.

From to 61NC

Sunrise and sunset
Times for 20-Sep-2020
 Local
(UTC-4)
 Zulu
(UTC)
Morning civil twilight06:3910:39
Sunrise07:0411:04
Sunset19:1423:14
Evening civil twilight19:3923:39

Current date and time
Zulu (UTC)  20-Sep-2020 18:19:07
Local (UTC-4)  20-Sep-2020 14:19:07
 
METAR
KFAY 
8nm NE 
201753Z 04014G20KT 10SM SCT043 22/11 A3031 RMK AO2 SLP258 T02170111 10222 20128 58006
KFBG 
15nm N 
201756Z AUTO 05009G17KT 10SM FEW041 21/11 A3031 RMK AO2 SLP266 T02120106 10224 20124 57007 $
KPOB 
18nm N 
201756Z AUTO 06018G24KT 10SM SCT044 21/11 A3033 RMK AO2 SLP273 T02110106 10221 20122 57006 $
TAF
KFAY 
8nm NE 
201720Z 2018/2118 03014G22KT P6SM BKN040 FM202300 03007KT P6SM FEW040 FM211400 03013G21KT P6SM SCT040
KFBG 
15nm N 
201700Z 2017/2123 04012G20KT 9999 SCT040 QNH3025INS BECMG 2023/2024 04009KT 9999 FEW020 SCT200 QNH3028INS BECMG 2114/2115 05015G22KT 9999 SCT040 SCT150 SCT200 QNH3029INS BECMG 2122/2123 04009KT 9999 FEW020 SCT200 QNH3026INS TX21/2018Z TN10/2108Z
KLBT 
17nm S 
201720Z 2018/2118 04015G22KT P6SM FEW040 AMD NOT SKED
KPOB 
18nm N 
200900Z 2009/2115 01006KT 9999 FEW030 WS020/05040KT QNH3026INS BECMG 2011/2012 04012G18KT 9999 SCT150 QNH3022INS BECMG 2020/2021 04009KT 9999 SCT030 SCT200 510053 QNH3025INS BECMG 2105/2106 03009KT 9999 SCT025 510053 QNH3036INS BECMG 2112/2113 04012G18KT 9999 FEW027 510063 QNH3040INS TX21/2019Z TN10/2011Z
NOTAMs
Click for the latest NOTAMs
NOTAMs are issued by the DoD/FAA and will open in a separate window not controlled by AirNav.

 

 
 

Would you like to see your business listed on this page?

 If your business provides an interesting product or service to pilots, flight crews, aircraft, or users of the Southern Comforts Aerodrome, you should consider listing it here.  To start the listing process, click on the button below
 
Add a business
 

Other Pages about Southern Comforts Aerodrome

users.aol.com/...
 
Update a link
 
Copyright © AirNav, LLC. All rights reserved. Privacy Policy  Contact